EW1296 Weather Reports


time (UTC)temp
C
wind
direction
speed
KPH
gust
KPH
rain 1hr
cm
rain 24hr
cm
rain mn
cm
humidity
%
barometer
mb
20260507224017 18 338 3.2 9.7 0.00 0.41 0.41 31 1007.7
20260507223518 18 315 4.8 14.5 0.00 0.41 0.41 30 1007.7
20260507223017 18 315 4.8 14.5 0.00 0.41 0.41 30 1007.7
20260507222517 18 338 6.4 12.9 0.00 0.41 0.41 30 1007.7
20260507222018 18 315 6.4 16.1 0.00 0.41 0.41 31 1007.6
20260507221517 19 315 6.4 19.3 0.00 0.41 0.41 31 1007.6
20260507221018 19 338 6.4 14.5 0.00 0.41 0.41 31 1007.8
20260507220517 19 338 4.8 16.1 0.00 0.41 0.41 30 1007.7
20260507220017 19 0 6.4 12.9 0.00 0.41 0.41 31 1007.7
20260507215518 19 0 3.2 12.9 0.00 0.41 0.41 30 1007.7
20260507215017 19 338 4.8 14.5 0.00 0.41 0.41 31 1007.6
20260507214517 19 0 6.4 16.1 0.00 0.41 0.41 30 1007.6
20260507214017 19 45 4.8 12.9 0.00 0.41 0.41 30 1007.7
20260507213517 19 0 4.8 11.3 0.00 0.41 0.41 31 1007.7
20260507213017 19 23 3.2 17.7 0.00 0.41 0.41 31 1007.6
20260507212538 19 0 6.4 14.5 0.00 0.41 0.41 31 1007.5
20260507212017 19 338 3.2 8.0 0.00 0.41 0.41 31 1007.5
20260507211517 19 0 8.0 16.1 0.00 0.41 0.41 30 1007.4
20260507211017 19 293 3.2 11.3 0.00 0.41 0.41 31 1007.4
20260507210517 19 338 1.6 6.4 0.00 0.41 0.41 31 1007.4
20260507210017 18 270 3.2 9.7 0.00 0.41 0.41 32 1007.3
20260507205517 18 0 3.2 12.9 0.00 0.41 0.41 31 1007.4
20260507205017 19 338 6.4 14.5 0.00 0.41 0.41 31 1007.5
20260507204517 19 45 3.2 8.0 0.00 0.41 0.41 30 1007.5
20260507204018 19 45 6.4 16.1 0.00 0.41 0.41 29 1007.5
20260507203517 20 315 6.4 14.5 0.00 0.41 0.41 31 1007.5
20260507203017 19 0 4.8 16.1 0.00 0.41 0.41 30 1007.5
20260507202517 19 0 3.2 12.9 0.00 0.41 0.41 31 1007.6
20260507202059 19 45 4.8 12.9 0.00 0.41 0.41 30 1007.5
20260507201518 19 23 4.8 14.5 0.00 0.41 0.41 31 1007.6
20260507201039 19 0 4.8 12.9 0.00 0.41 0.41 30 1007.7
20260507200517 19 338 4.8 16.1 0.00 0.41 0.41 30 1007.7
20260507200017 19 315 3.2 14.5 0.00 0.41 0.41 30 1007.6
20260507195517 19 338 6.4 16.1 0.00 0.41 0.41 29 1007.7
20260507195017 20 338 4.8 12.9 0.00 0.41 0.41 30 1007.7
20260507194518 19 338 4.8 11.3 0.00 0.41 0.41 31 1007.8
20260507194037 19 338 6.4 14.5 0.00 0.41 0.41 30 1007.9
20260507193537 19 0 4.8 16.1 0.00 0.41 0.41 31 1007.8
20260507193016 19 0 4.8 12.9 0.00 0.41 0.41 30 1007.9
20260507192517 19 45 4.8 16.1 0.00 0.41 0.41 31 1007.9
20260507192017 19 315 6.4 14.5 0.00 0.41 0.41 31 1008.0
20260507191517 19 248 8.0 20.9 0.00 0.41 0.41 31 1008.0
20260507191016 19 270 11.3 22.5 0.00 0.41 0.41 30 1008.1
20260507190517 19 0 8.0 20.9 0.00 0.41 0.41 31 1008.1
20260507190017 19 338 6.4 20.9 0.00 0.41 0.41 30 1008.3
20260507185517 19 0 4.8 14.5 0.00 0.41 0.41 32 1008.3
20260507185017 19 0 4.8 12.9 0.00 0.41 0.41 31 1008.4
20260507184517 18 315 4.8 11.3 0.00 0.41 0.41 31 1008.4
20260507184037 18 338 4.8 14.5 0.00 0.41 0.41 31 1008.4
20260507183517 18 315 6.4 17.7 0.00 0.41 0.41 31 1008.4
20260507183017 18 45 4.8 14.5 0.00 0.41 0.41 31 1008.5
20260507182517 18 315 4.8 12.9 0.00 0.41 0.41 32 1008.6
20260507182037 18 293 4.8 11.3 0.00 0.41 0.41 32 1008.6
20260507181517 18 0 8.0 16.1 0.00 0.41 0.41 31 1008.8
20260507181017 18 293 6.4 16.1 0.00 0.41 0.41 31 1008.8
20260507180517 18 315 8.0 17.7 0.00 0.41 0.41 31 1009.0
20260507180018 18 338 6.4 12.9 0.00 0.41 0.41 32 1009.0
20260507175538 18 338 8.0 17.7 0.00 0.41 0.41 31 1009.1
20260507175017 18 338 4.8 12.9 0.00 0.41 0.41 31 1009.2
20260507174517 18 0 6.4 16.1 0.00 0.41 0.41 32 1009.3
20260507174017 18 0 6.4 19.3 0.00 0.41 0.41 32 1009.2
20260507173538 18 0 8.0 19.3 0.00 0.41 0.41 32 1009.3
20260507173017 17 270 4.8 11.3 0.00 0.41 0.41 32 1009.2
20260507172516 17 0 8.0 16.1 0.00 0.41 0.41 31 1009.3
20260507172018 17 0 4.8 17.7 0.00 0.43 0.41 31 1009.4
20260507171516 17 315 6.4 12.9 0.00 0.43 0.41 32 1009.5
20260507171017 17 0 4.8 14.5 0.00 0.43 0.41 32 1009.8
20260507170516 17 315 9.7 19.3 0.00 0.43 0.41 31 1009.6
20260507170016 17 293 6.4 19.3 0.00 0.43 0.41 32 1009.7
20260507165517 17 315 6.4 14.5 0.00 0.43 0.41 32 1009.8
20260507165018 17 315 8.0 17.7 0.00 0.43 0.41 31 1009.9
20260507164536 17 338 6.4 17.7 0.00 0.43 0.41 32 1010.0
20260507164017 17 315 6.4 14.5 0.00 0.43 0.41 33 1010.0
20260507163517 17 315 8.0 17.7 0.00 0.43 0.41 33 1010.0
20260507163016 17 338 8.0 16.1 0.00 0.46 0.41 32 1010.0
20260507162558 17 293 8.0 17.7 0.00 0.46 0.41 33 1010.1
20260507162016 16 315 8.0 19.3 0.00 0.46 0.41 32 1010.2
20260507161516 16 315 8.0 19.3 0.00 0.46 0.41 34 1010.3
20260507161017 16 0 8.0 19.3 0.00 0.46 0.41 33 1010.4
20260507160536 16 315 8.0 19.3 0.00 0.46 0.41 34 1010.5
20260507160036 16 315 9.7 17.7 0.00 0.46 0.41 35 1010.6
20260507155516 16 315 6.4 17.7 0.00 0.46 0.41 37 1010.7
20260507155016 16 338 4.8 11.3 0.00 0.46 0.41 38 1010.7
20260507154516 16 338 6.4 16.1 0.00 0.46 0.41 37 1010.7
20260507154017 16 315 8.0 19.3 0.00 0.46 0.41 37 1010.8
20260507153517 16 315 8.0 16.1 0.00 0.46 0.41 37 1010.8
20260507153016 15 0 6.4 17.7 0.00 0.46 0.41 38 1010.9
20260507152517 15 315 8.0 20.9 0.00 0.46 0.41 39 1010.8
20260507152038 15 315 9.7 22.5 0.00 0.46 0.41 39 1011.0
20260507151516 15 315 9.7 22.5 0.00 0.46 0.41 37 1011.0
20260507151037 15 315 9.7 20.9 0.00 0.46 0.41 38 1011.0
20260507150516 15 293 6.4 17.7 0.00 0.46 0.41 39 1011.0
20260507150016 15 315 9.7 19.3 0.00 0.46 0.41 38 1011.0
20260507145516 15 315 8.0 16.1 0.00 0.46 0.41 39 1011.0
20260507145037 15 0 9.7 19.3 0.00 0.46 0.41 38 1011.1
20260507144516 15 338 9.7 22.5 0.00 0.46 0.41 40 1011.2
20260507144016 15 315 8.0 19.3 0.00 0.46 0.41 44 1011.2
20260507143516 15 0 8.0 20.9 0.00 0.46 0.41 48 1011.2
20260507143017 14 0 8.0 17.7 0.00 0.46 0.41 50 1011.3
20260507142538 14 315 9.7 19.3 0.00 0.46 0.41 53 1011.2
20260507142038 14 0 8.0 16.1 0.00 0.46 0.41 55 1011.2
20260507141516 14 0 6.4 14.5 0.00 0.46 0.41 60 1011.2
20260507141016 13 315 8.0 19.3 0.00 0.46 0.41 62 1011.2
20260507140516 13 315 9.7 17.7 0.00 0.46 0.41 63 1011.2
20260507140017 13 338 6.4 17.7 0.00 0.46 0.41 64 1011.2
20260507135516 13 315 3.2 11.3 0.00 0.46 0.41 67 1011.1
20260507135018 13 315 8.0 17.7 0.00 0.46 0.41 66 1011.2
20260507134516 13 315 6.4 14.5 0.00 0.46 0.41 68 1011.2
20260507134016 12 315 6.4 16.1 0.00 0.46 0.41 69 1011.2
20260507133516 12 338 6.4 16.1 0.00 0.46 0.41 71 1011.2
20260507133017 12 315 6.4 16.1 0.00 0.46 0.41 72 1011.2
20260507132516 12 338 6.4 17.7 0.00 0.46 0.41 73 1011.1
20260507132016 12 270 6.4 12.9 0.00 0.46 0.41 74 1011.1
20260507131517 12 293 6.4 12.9 0.00 0.46 0.41 74 1011.2
20260507131017 12 315 6.4 12.9 0.00 0.46 0.41 75 1011.3
20260507130516 12 315 6.4 16.1 0.00 0.46 0.41 75 1011.3
20260507130016 11 315 6.4 17.7 0.00 0.46 0.41 75 1011.4
20260507125516 11 315 8.0 17.7 0.00 0.46 0.41 75 1011.4
20260507125038 11 338 8.0 16.1 0.00 0.46 0.41 75 1011.3
20260507124516 11 338 8.0 20.9 0.00 0.46 0.41 76 1011.4
20260507124017 11 315 6.4 19.3 0.00 0.46 0.41 77 1011.2
20260507123516 11 315 6.4 12.9 0.00 0.46 0.41 78 1011.3
20260507123016 11 315 6.4 16.1 0.00 0.46 0.41 78 1011.4
20260507122516 11 315 4.8 12.9 0.00 0.46 0.41 78 1011.4
20260507122016 11 315 6.4 14.5 0.00 0.46 0.41 78 1011.5
20260507121517 11 315 4.8 12.9 0.00 0.46 0.41 79 1011.4
20260507121016 11 338 4.8 12.9 0.00 0.46 0.41 79 1011.4
20260507120516 11 338 4.8 14.5 0.00 0.46 0.41 79 1011.3
20260507120016 11 315 4.8 12.9 0.00 0.46 0.41 79 1011.3
20260507115516 11 315 4.8 16.1 0.00 0.46 0.41 79 1011.0
20260507115016 11 315 6.4 20.9 0.00 0.46 0.41 79 1011.0
20260507114516 11 315 6.4 16.1 0.00 0.46 0.41 80 1010.9
20260507114017 11 315 6.4 16.1 0.00 0.46 0.41 80 1011.0
20260507113516 11 315 4.8 9.7 0.00 0.46 0.41 81 1010.8
20260507113037 11 315 3.2 9.7 0.00 0.46 0.41 81 1010.9
20260507112516 11 315 4.8 16.1 0.00 0.46 0.41 81 1010.7
20260507112037 11 315 6.4 16.1 0.00 0.46 0.41 81 1010.6
20260507111516 11 315 8.0 19.3 0.00 0.46 0.41 81 1010.7
20260507111017 11 293 4.8 14.5 0.00 0.46 0.41 81 1010.6
20260507110516 11 315 6.4 16.1 0.00 0.46 0.41 82 1010.6
20260507110016 11 315 4.8 14.5 0.00 0.46 0.41 82 1010.5
20260507105517 11 315 6.4 16.1 0.00 0.46 0.41 82 1010.4
20260507105016 11 315 6.4 16.1 0.00 0.46 0.41 83 1010.4
20260507104536 11 338 3.2 11.3 0.00 0.46 0.41 84 1010.3
20260507104016 11 315 8.0 16.1 0.00 0.46 0.41 84 1010.3
20260507103517 11 315 4.8 17.7 0.00 0.46 0.41 84 1010.4
20260507103037 11 315 4.8 14.5 0.00 0.46 0.41 84 1010.2
20260507102516 11 315 4.8 14.5 0.00 0.46 0.41 85 1010.0
20260507102016 11 315 6.4 14.5 0.00 0.46 0.41 85 1010.2
20260507101516 11 315 4.8 12.9 0.00 0.46 0.41 85 1010.1
20260507101016 10 293 6.4 12.9 0.00 0.46 0.41 85 1010.0
20260507100516 10 315 4.8 14.5 0.00 0.46 0.41 86 1009.8
20260507100016 10 315 4.8 9.7 0.03 0.46 0.41 86 1009.8
20260507095537 10 315 4.8 14.5 0.03 0.46 0.41 86 1009.8
20260507095016 10 293 4.8 14.5 0.03 0.46 0.41 86 1009.9
20260507094516 10 315 6.4 14.5 0.03 0.46 0.41 87 1009.8
20260507094036 10 315 6.4 19.3 0.03 0.46 0.41 87 1009.6
20260507093516 10 315 6.4 14.5 0.03 0.46 0.41 87 1009.6
20260507093016 10 315 4.8 16.1 0.03 0.46 0.41 87 1009.5
20260507092536 10 315 4.8 14.5 0.03 0.46 0.41 87 1009.7
20260507092016 10 338 6.4 17.7 0.03 0.46 0.41 87 1009.5
20260507091517 10 338 6.4 16.1 0.03 0.46 0.41 87 1009.2
20260507091016 10 315 6.4 16.1 0.03 0.46 0.41 87 1009.4
20260507090516 10 315 6.4 14.5 0.03 0.46 0.41 87 1009.5
20260507090017 10 338 6.4 16.1 0.00 0.43 0.38 87 1009.5
20260507085516 10 315 4.8 9.7 0.00 0.43 0.38 87 1009.6
20260507085017 10 315 4.8 16.1 0.00 0.43 0.38 87 1009.5
20260507084516 10 315 8.0 24.1 0.00 0.43 0.38 86 1009.6
20260507084016 11 315 8.0 16.1 0.00 0.43 0.38 86 1009.8
20260507083516 11 315 8.0 19.3 0.00 0.43 0.38 86 1009.7
20260507083016 11 315 6.4 16.1 0.03 0.43 0.38 86 1009.6
20260507082516 10 315 9.7 24.1 0.03 0.43 0.38 86 1009.6
20260507082016 11 315 8.0 19.3 0.03 0.43 0.38 86 1009.1
20260507081558 11 338 9.7 16.1 0.03 0.43 0.38 86 1009.2
20260507081016 11 315 8.0 19.3 0.03 0.43 0.38 87 1009.6
20260507080516 11 315 11.3 22.5 0.03 0.43 0.38 87 1009.4
20260507080016 11 315 11.3 20.9 0.03 0.43 0.38 87 1009.4
20260507075516 11 315 9.7 22.5 0.03 0.43 0.38 87 1009.2
20260507075016 11 338 9.7 19.3 0.05 0.43 0.38 87 1009.7
20260507074536 11 338 9.7 20.9 0.05 0.43 0.38 87 1009.7
20260507074016 11 315 9.7 27.4 0.05 0.43 0.38 88 1009.5
20260507073516 11 315 9.7 27.4 0.08 0.43 0.38 88 1009.6
20260507073016 11 315 11.3 17.7 0.08 0.41 0.36 88 1009.7
20260507072516 11 315 9.7 19.3 0.10 0.41 0.36 88 1009.7
20260507072016 11 315 11.3 20.9 0.15 0.41 0.36 88 1009.5
20260507071515 11 315 9.7 20.9 0.18 0.41 0.36 88 1009.3
20260507071017 11 315 8.0 20.9 0.20 0.41 0.36 89 1009.5
20260507070537 11 315 9.7 17.7 0.23 0.41 0.36 89 1009.4
20260507070016 11 315 9.7 22.5 0.25 0.41 0.36 89 1009.2
20260507065516 11 338 8.0 14.5 0.30 0.41 0.36 89 1009.5
20260507065017 11 315 6.4 14.5 0.33 0.38 0.33 88 1009.5
20260507064515 11 315 6.4 16.1 0.33 0.38 0.33 88 1008.9
20260507064016 11 315 8.0 16.1 0.33 0.38 0.33 88 1009.1
20260507063517 12 315 6.4 17.7 0.30 0.36 0.30 87 1008.7
20260507063016 12 315 6.4 16.1 0.28 0.33 0.28 86 1008.9
20260507062517 12 293 4.8 16.1 0.25 0.30 0.25 86 1009.7
20260507062036 12 315 8.0 14.5 0.20 0.25 0.20 85 1009.5
20260507061515 12 293 6.4 16.1 0.18 0.23 0.18 84 1009.5
20260507061036 12 315 9.7 16.1 0.15 0.20 0.15 83 1008.9
20260507060515 12 315 8.0 19.3 0.13 0.18 0.13 81 1008.6
20260507060015 13 315 6.4 16.1 0.10 0.15 0.10 80 1008.5
20260507055516 13 0 6.4 14.5 0.05 0.10 0.05 78 1008.8
20260507055016 13 315 8.0 17.7 0.00 0.05 0.00 77 1008.9
20260507054535 13 315 8.0 16.1 0.00 0.05 0.00 76 1008.9
20260507054016 13 315 8.0 17.7 0.00 0.05 0.00 75 1009.0
20260507053516 13 315 8.0 19.3 0.00 0.05 0.00 74 1008.8
20260507053015 13 315 8.0 17.7 0.00 0.05 0.00 74 1008.5
20260507052517 13 315 8.0 19.3 0.00 0.05 0.00 74 1008.3
20260507052015 13 315 9.7 17.7 0.00 0.05 0.00 74 1008.3
20260507051529 13 315 6.4 12.9 0.00 0.05 0.00 73 1008.1
20260507051015 13 315 6.4 17.7 0.00 0.05 0.00 73 1008.3
20260507050515 13 315 6.4 17.7 0.00 0.05 0.00 73 1008.6
20260507050015 14 338 8.0 17.7 0.00 0.05 0.00 73 1008.7
20260507045517 14 315 8.0 17.7 0.00 0.05 0.00 73 1008.8
20260507045016 14 315 6.4 14.5 0.00 0.05 0.00 73 1008.8
20260507044515 14 315 8.0 20.9 0.00 0.05 0.00 73 1008.7
20260507044015 14 315 8.0 19.3 0.00 0.05 0.00 73 1008.8
20260507043516 14 315 8.0 16.1 0.00 0.05 0.00 72 1008.7
20260507043016 14 315 8.0 17.7 0.00 0.05 0.00 72 1008.6
20260507042515 14 315 8.0 16.1 0.00 0.05 0.00 72 1008.9
20260507042015 14 315 9.7 19.3 0.00 0.05 0.00 72 1009.0
20260507041515 14 315 8.0 17.7 0.00 0.05 0.00 72 1009.2
20260507041015 14 315 8.0 16.1 0.00 0.05 0.00 72 1009.3
20260507040535 15 315 9.7 19.3 0.00 0.05 0.00 73 1009.0
20260507040038 15 315 9.7 19.3 0.00 0.05 0.05 74 1008.9
20260507035516 15 338 9.7 25.7 0.00 0.05 0.05 75 1008.9
20260507035017 15 315 11.3 22.5 0.00 0.05 0.05 76 1008.8
20260507034517 15 315 11.3 24.1 0.00 0.05 0.05 79 1008.8
20260507034016 15 338 9.7 19.3 0.00 0.05 0.05 80 1008.9
20260507033516 15 315 6.4 17.7 0.00 0.05 0.05 82 1008.6
20260507033016 15 315 8.0 16.1 0.00 0.05 0.05 83 1008.6
20260507032516 15 293 6.4 19.3 0.00 0.05 0.05 83 1008.6
20260507032017 16 0 4.8 14.5 0.00 0.05 0.05 84 1008.6
20260507031516 16 338 6.4 16.1 0.00 0.05 0.05 85 1008.5
20260507031037 16 0 4.8 12.9 0.00 0.05 0.05 85 1008.3
20260507030516 16 0 6.4 16.1 0.00 0.05 0.05 86 1008.4
20260507030016 16 338 6.4 14.5 0.00 0.05 0.05 85 1008.4
20260507025516 16 0 4.8 16.1 0.00 0.05 0.05 85 1008.5
20260507025017 17 338 4.8 12.9 0.00 0.05 0.05 85 1008.6
20260507024516 17 315 6.4 19.3 0.00 0.05 0.05 85 1008.6
20260507024016 17 315 8.0 17.7 0.00 0.05 0.05 85 1008.7
20260507023516 17 338 8.0 20.9 0.00 0.05 0.05 85 1008.4
20260507023018 18 315 6.4 17.7 0.00 0.05 0.05 86 1008.4
20260507022516 18 315 6.4 16.1 0.00 0.05 0.05 85 1008.6
20260507022017 18 338 4.8 12.9 0.00 0.05 0.05 85 1008.4
20260507021516 18 270 8.0 16.1 0.00 0.05 0.05 84 1008.6
20260507021016 18 270 4.8 12.9 0.00 0.05 0.05 84 1008.4
20260507020516 18 293 3.2 8.0 0.00 0.05 0.05 83 1008.5
20260507020017 18 293 4.8 12.9 0.00 0.05 0.05 82 1008.3
20260507015517 18 225 3.2 9.7 0.00 0.05 0.05 82 1008.0
20260507015015 18 248 3.2 8.0 0.00 0.05 0.05 82 1007.9
20260507014516 18 225 1.6 9.7 0.00 0.05 0.05 81 1008.1
20260507014017 18 225 1.6 11.3 0.00 0.05 0.05 81 1008.0
20260507013516 18 0.0 4.8 0.00 0.05 0.05 81 1008.1
20260507013015 18 0.0 4.8 0.00 0.05 0.05 81 1008.2
20260507012516 18 225 3.2 9.7 0.00 0.05 0.05 81 1008.1
20260507012015 18 225 4.8 8.0 0.00 0.05 0.05 80 1008.0
20260507011516 18 225 1.6 6.4 0.00 0.05 0.05 80 1007.8
20260507011016 18 0.0 4.8 0.00 0.05 0.05 80 1007.8
20260507010516 18 225 3.2 4.8 0.00 0.05 0.05 79 1007.8
20260507010037 18 0.0 3.2 0.00 0.05 0.05 80 1007.8
20260507005516 18 225 1.6 4.8 0.00 0.05 0.05 80 1007.9
20260507005016 18 225 1.6 6.4 0.00 0.05 0.05 80 1007.9
20260507004536 19 225 1.6 8.0 0.00 0.05 0.05 79 1007.8
20260507004037 19 225 4.8 14.5 0.00 0.05 0.05 79 1007.7
20260507003535 19 225 3.2 11.3 0.00 0.05 0.05 79 1007.9
20260507003015 19 0.0 3.2 0.00 0.05 0.05 79 1007.8
20260507002515 19 225 1.6 8.0 0.00 0.05 0.05 79 1007.7
20260507002016 19 225 3.2 8.0 0.00 0.05 0.05 79 1007.7
20260507001537 19 248 4.8 8.0 0.00 0.05 0.05 79 1007.8
20260507001017 19 248 1.6 8.0 0.00 0.05 0.05 79 1007.9
20260507000555 19 203 4.8 12.9 0.00 0.05 0.05 79 1007.9
20260507000015 19 225 3.2 6.4 0.00 0.05 0.05 79 1007.9
20260506235535 19 225 4.8 12.9 0.00 0.05 0.05 79 1007.7
20260506235015 19 225 4.8 9.7 0.00 0.05 0.05 79 1007.7
20260506234535 19 203 3.2 9.7 0.00 0.05 0.05 79 1007.7
20260506234015 19 225 3.2 6.4 0.00 0.05 0.05 79 1007.7
20260506233516 19 225 3.2 6.4 0.00 0.05 0.05 79 1007.5
20260506233038 19 225 4.8 11.3 0.00 0.05 0.05 79 1007.5
20260506232515 19 203 1.6 8.0 0.00 0.05 0.05 79 1007.3
20260506232036 19 225 3.2 9.7 0.00 0.05 0.05 79 1007.5
20260506231516 19 225 4.8 9.7 0.00 0.05 0.05 79 1007.6
20260506231015 19 203 1.6 6.4 0.00 0.05 0.05 78 1007.5
20260506230515 19 248 3.2 8.0 0.00 0.05 0.05 78 1007.5
20260506230017 19 225 4.8 12.9 0.00 0.05 0.05 78 1007.5
20260506225658 19 225 4.8 9.7 0.00 0.05 0.05 78 1007.5
20260506225055 19 225 3.2 8.0 0.00 0.05 0.05 78 1007.4
20260506224515 20 225 4.8 11.3 0.00 0.05 0.05 78 1007.4